Location: Lonelyville
(40.6409°N, 73.1748°W)
Time: 04:08:44
(UTC+00:00)

Daily predictions for brighter satellites

Satellite Brightness Start Highest point End
(mag) Time Altitude Azimuth Time Altitude Azimuth Time Altitude Azimuth
ISS -0.6 00:01:43 10° NW 00:02:04 12° NW 00:02:04 12° NW
Cosmos 2266 Rocket 4.2 00:00:24 10° NNW 00:06:46 72° W 00:13:09 10° S
SL-16 R/B 3.6 00:02:30 10° NNW 00:05:05 28° N 00:05:05 28° N
Cosmos 2082 Rocket 4.1 00:04:02 10° WSW 00:08:37 25° NW 00:11:58 15° N
ATLAS 5 CENTAUR R/B 4.4 00:07:02 10° NW 00:08:17 16° NNW 00:08:17 16° NNW
CZ-2C R/B 4.1 00:18:59 10° SW 00:19:38 13° SW 00:19:38 13° SW
Cosmos 2369 Rocket 4.5 08:23:52 16° SE 08:25:46 19° E 08:29:37 10° NE
CENTAUR R/B 3.6 08:51:33 37° NNE 08:51:33 37° NNE 08:55:39 10° NNE
Cosmos 1943 Rocket 4.0 08:53:41 23° NNE 08:53:41 23° NNE 08:55:40 10° NNE
NOSS 3-2 (C) 3.9 09:13:26 48° NNE 09:13:26 48° NNE 09:18:00 10° NNE
Cosmos 2344 3.9 09:14:06 47° NNW 09:14:06 47° NNW 09:20:17 10° NNE
Cosmos 1812 4.5 09:28:44 29° ENE 09:29:15 30° ENE 09:32:39 10° SE
Tsikada Rocket 3.8 09:26:40 10° S 09:32:50 79° W 09:39:09 10° N
Meteor 2-3 Rocket 4.0 09:40:23 52° NNW 09:40:23 52° NNW 09:44:52 10° N
USA 238 DEB 3.8 09:40:07 50° NW 09:40:07 50° NW 09:46:25 10° NNE
USA 238 3.8 09:40:11 51° NW 09:40:11 51° NW 09:46:32 10° NNE
BREEZE-M DEB (TANK) 3.1 09:43:04 63° NW 09:43:52 82° NE 09:57:19 10° ESE
USA 215 4.0 09:41:06 10° E 09:47:13 45° NNE 09:50:34 26° NNW
Cosmos 1241 Rocket 4.3 09:49:45 52° WNW 09:51:08 67° WSW 09:57:16 10° SSE
Meteor 1-31 Rocket 3.7 09:48:31 10° NNE 09:52:19 49° E 09:56:07 10° S
Cosmos 921 Rocket 3.0 09:53:48 62° N 09:54:31 87° ENE 09:59:00 10° SSE
Cosmos 1782 3.9 09:57:34 31° SSW 09:57:34 31° SSW 09:59:46 10° S
Cosmos 2263 4.2 09:52:33 10° SSW 09:58:14 85° ESE 10:04:00 10° NNE
Meteor 1-26 Rocket 4.2 09:56:03 30° NNW 09:59:00 64° W 10:04:39 10° S
H-2A R/B 2.5 09:56:24 10° NNE 10:00:08 89° E 10:03:54 10° SSW
Cosmos 1862 3.5 09:58:15 10° S 10:02:09 70° E 10:06:06 10° NNE
Cosmos 2208 Rocket 4.3 10:02:49 45° WSW 10:02:49 45° WSW 10:07:52 10° S
Cosmos 1867 4.0 10:03:11 40° WSW 10:03:11 40° WSW 10:08:07 10° S
Gbstr 26 Del rocket 4.2 10:04:20 26° SSW 10:04:20 26° SSW 10:07:07 10° SSE
Okean 3 Rocket 3.9 09:59:48 10° S 10:04:17 69° E 10:08:49 10° NNE
Cosmos 1503 Rocket 4.2 10:03:04 10° S 10:08:18 73° ESE 10:13:38 10° NNE
Cosmos 1151 Rocket 3.0 10:05:51 19° N 10:08:56 86° E 10:13:18 10° S
Cosmos 2369 Rocket 2.2 10:05:54 23° SW 10:09:16 56° WNW 10:14:48 10° NNE
SL-19 R/B 4.2 10:06:18 10° S 10:11:51 65° WSW 10:16:13 17° NNW
Cosmos 1766 Rocket 3.4 10:09:01 10° S 10:13:21 82° W 10:17:42 10° N
SJ-12 3.8 10:09:43 10° N 10:13:49 63° WNW 10:17:54 10° SSW
Meteor 2-13 Rocket 4.4 10:07:55 10° SSW 10:13:53 56° W 10:19:53 10° N
Cosmos 1486 Rocket 4.0 10:10:31 10° SW 10:15:42 56° WNW 10:20:55 10° N
BREEZE M DEB (TANK) 4.3 10:21:35 21° NNW 10:21:35 21° NNW 10:23:42 10° NE
Cosmos 1328 Rocket 3.5 10:21:02 10° N 10:25:26 90° WSW 10:29:47 10° S
Cosmos 1656 Rocket 3.6 10:20:24 10° SW 10:25:42 56° WNW 10:31:04 10° NNE
Iridium 2 4.0 10:22:36 10° SSW 10:26:12 41° W 10:26:47 38° WNW
CZ-4B R/B 4.1 10:24:45 10° NNE 10:28:06 37° E 10:31:28 10° SSE
DNEPR-1 R/B 4.0 10:27:07 20° NNW 10:30:38 86° ENE 10:36:35 10° SSE
COSMO-SKYMED 1 2.7 10:27:53 10° S 10:32:06 52° W 10:35:30 16° NNW
CZ-2C R/B 2.7 10:28:09 10° S 10:33:33 57° W 10:38:52 10° NNW
Cosmos 1943 Rocket 3.7 10:35:16 17° NW 10:35:16 17° NW 10:38:09 10° N
Envisat 3.4 10:35:29 10° N 10:40:13 40° WNW 10:44:55 10° SW
CENTAUR R/B 3.8 10:38:46 19° NW 10:40:39 22° NNW 10:46:03 10° NNE
Cosmos 2098 Rocket 3.8 10:42:12 10° SW 10:45:36 29° WNW 10:49:45 10° NNW
Cosmos 1408 Rocket 3.4 10:43:16 10° SSW 10:47:33 75° W 10:51:52 10° N
DELTA 2 R/B (1) 3.7 10:47:14 15° WSW 10:51:54 78° S 10:57:28 10° E
Cosmos 1340 Rocket 3.3 10:49:05 10° S 10:52:57 63° E 10:56:54 10° NNE
NOAA 12 4.3 10:48:14 10° NNE 10:53:32 74° ESE 10:58:44 10° S
Cosmos 2279 Rocket 4.2 10:48:37 10° NNW 10:54:30 47° W 11:00:21 10° SSW
Cosmos 1174 3.4 10:52:18 10° SSW 10:55:16 69° ESE 10:58:17 10° NE
Cosmos 1743 Rocket 3.9 10:51:32 10° S 10:55:53 69° E 11:00:14 10° NNE
SMAP 4.0 10:52:14 10° NNE 10:56:47 52° E 11:01:19 10° S
NOAA 11 4.2 10:55:43 10° N 11:01:07 61° WNW 11:06:30 10° SSW
Nadezhda 4 Rocket 3.9 10:55:36 10° SSW 11:01:44 76° W 11:07:59 10° N
CZ-4B R/B 3.3 11:00:03 10° SE 11:02:59 30° ENE 11:05:54 10° N
Meteor 1-27 Rocket 3.8 10:57:22 10° N 11:03:04 89° WSW 11:08:50 10° S
DMSP B5D1-3 4.5 10:58:45 10° S 11:03:53 78° WSW 11:09:04 10° NNW
Cosmos 1812 4.3 11:03:50 15° WNW 11:04:42 16° W 11:07:06 10° SW
Meteor 2-15 Rocket 4.4 10:59:35 10° N 11:05:40 76° W 11:11:42 10° S
Cosmos 1515 Rocket 3.6 11:02:56 10° NNW 11:07:13 57° W 11:11:27 10° S
Cosmos 1939 Rocket 2.8 11:03:44 10° NNE 11:07:40 87° ESE 11:11:32 10° SSW
ATLAS 3B R/B 2.8 11:01:31 10° SSW 11:08:00 80° ESE 11:14:47 10° NE
Cosmos 1354 Rocket 4.5 11:04:23 10° SW 11:09:18 39° WNW 11:14:16 10° N
SJ 16-02 1.3 11:05:47 10° SSW 11:10:08 71° WNW 11:14:32 10° NNE
Meteor PRIRODA 3.8 11:08:08 10° N 11:11:37 45° WNW 11:15:05 10° SSW
ADEOS 4.0 11:09:31 10° N 11:14:22 40° WNW 11:19:12 10° SW
Cosmos 1515 4.2 11:10:45 10° N 11:14:31 63° E 11:18:17 10° SSE
Cosmos 1092 Rocket 4.2 11:11:07 10° S 11:17:21 84° E 11:23:41 10° N
CZ-4C R/B 4.3 11:17:13 10° SW 11:19:31 19° W 11:21:48 10° NW
ATLAS 5 CENTAUR R/B 1.3 11:18:23 10° SW 11:22:06 55° NW 11:26:14 10° NNE
SL-8 R/B 3.7 11:17:48 10° WNW 11:22:37 84° SSW 11:27:23 10° SE
Cosmos 1500 Rocket 3.7 11:19:58 10° SSW 11:24:19 53° W 11:28:43 10° N
SL-4 R/B 4.1 11:22:54 10° SSW 11:25:57 28° SE 11:29:12 10° ENE
CZ-2C R/B 3.3 11:22:30 10° N 11:27:07 43° WNW 11:31:54 10° SW
Geosat FO 4.4 11:24:56 10° SSE 11:28:15 73° WSW 11:31:35 10° NNW
Okean 1 4.2 11:25:31 10° N 11:29:23 51° E 11:33:13 10° SSE
USA 215 3.5 11:23:39 10° SSE 11:30:04 60° SW 11:36:32 10° NW
Meteor 1-25 Rocket 4.2 11:25:26 10° S 11:31:05 83° W 11:36:41 10° N
